PST,Max TemperatureF,Mean TemperatureF,Min TemperatureF,Max Dew PointF,MeanDew PointF,Min DewpointF,Max Humidity, Mean Humidity, Min Humidity, Max Sea Level PressureIn, Mean Sea Level PressureIn, Min Sea Level PressureIn, Max VisibilityMiles, Mean VisibilityMiles, Min VisibilityMiles, Max Wind SpeedMPH, Mean Wind SpeedMPH, Max Gust SpeedMPH,PrecipitationIn, CloudCover, Events, WindDirDegrees
2013-2-1,49,33,16,26,17,9,80,55,29,30.41,30.33,30.26,10,10,10,12,2,21,0.00,0,,91
2013-2-2,44,33,21,28,21,15,85,66,46,30.44,30.36,30.30,10,10,8,26,1,28,0.00,1,,46
2013-2-3,50,35,19,27,19,13,84,57,29,30.30,30.24,30.16,10,10,9,10,2,26,0.00,0,,40
2013-2-4,50,35,19,28,22,15,84,61,37,30.28,30.18,30.09,10,10,10,10,1,20,0.00,0,,39
2013-2-5,50,38,26,25,18,10,78,49,20,30.07,30.00,29.89,10,10,10,23,6,38,0.00,0,,189
2013-2-6,46,31,16,22,12,-1,73,45,17,30.16,30.09,30.03,10,10,10,10,2,16,0.00,0,,112
2013-2-7,39,30,20,25,16,-11,78,45,12,29.99,29.89,29.84,10,6,0,28,9,43,0.03,6,Snow,191
2013-2-8,30,20,9,19,12,6,84,67,50,29.95,29.85,29.78,10,8,0,9,2,16,0.01,5,Snow,67
2013-2-9,35,22,8,14,10,3,80,59,38,30.14,30.00,29.87,10,10,4,12,1,16,0.00,2,,96
2013-2-10,35,23,10,15,10,5,83,61,38,30.16,30.09,30.04,10,10,10,17,6,25,0.00,0,,8
2013-2-11,40,29,17,15,10,7,68,48,27,30.29,30.17,30.05,10,10,10,16,4,21,0.00,0,,20
2013-2-12,48,31,13,20,14,7,80,56,31,30.42,30.34,30.28,10,10,10,10,4,15,0.00,0,,169
2013-2-13,47,32,16,24,18,12,80,59,37,30.44,30.34,30.28,10,10,10,15,3,23,0.00,0,,126
2013-2-14,51,36,21,24,20,16,81,54,26,30.42,30.34,30.28,10,10,10,12,3,18,0.00,0,,207
2013-2-15,53,36,19,25,21,15,84,53,22,30.47,30.41,30.33,10,10,10,10,3,12,0.00,0,,159
2013-2-16,52,35,17,23,17,10,84,52,19,30.42,30.27,30.08,10,10,9,13,2,18,0.00,0,,193
2013-2-17,51,36,20,23,16,7,75,47,18,30.07,30.01,29.94,10,10,10,9,2,25,0.00,0,,182
2013-2-18,48,34,20,20,16,9,84,53,21,30.02,29.89,29.71,10,10,10,24,4,37,0.00,1,,200
2013-2-19,36,28,19,25,19,11,84,64,43,29.78,29.63,29.52,10,4,0,28,12,41,0.01,8,Snow,197
2013-2-20,36,23,10,20,14,6,88,60,32,30.01,29.80,29.62,10,7,1,10,2,20,0.02,3,Snow,30
2013-2-21,38,28,17,19,14,6,80,55,29,30.16,30.00,29.89,10,7,0,13,3,26,0.12,4,Fog-Snow,123
2013-2-22,48,31,14,25,14,3,80,49,18,30.27,30.16,30.07,10,10,10,21,4,25,0.00,1,,176
2013-2-23,37,31,24,24,15,5,61,44,27,30.16,30.03,29.86,10,10,3,25,12,39,T,3,Snow,102
2013-2-24,41,28,15,12,9,5,73,48,23,30.29,30.23,30.14,10,10,10,16,5,25,0.00,0,,143
2013-2-25,48,33,18,22,13,1,75,45,15,30.26,30.17,30.10,10,10,10,21,4,30,0.00,0,,195
2013-2-26,43,30,16,13,8,0,74,46,17,30.32,30.22,30.13,10,10,10,13,2,21,0.00,0,,115
2013-2-27,49,32,15,20,12,4,69,44,18,30.42,30.34,30.28,10,10,10,12,2,16,0.00,0,,163
2013-2-28,53,40,26,29,24,16,78,58,38,30.49,30.42,30.35,10,10,10,12,2,16,0.00,1,,28